When you browse on this site, cookies collect data to enhance your experience and personalize the content and advertising you see.
Visit our Privacy Policy to learn more. By continuing to use the site, you agree to this use of cookies and data.
  • In Hungary
  • List of Countries
  • For 7 days
  • Water Temperature
  • Satellite Maps
  • Weather Map
  • News
  • Weather Widgets
  • user-avatar
    Login

    Hourly Weather Mieczyn

    Today, 24 January, Thursday

    Time Temperature Precipitation Wind Pressure Humidity
    00:00 -10°C° 0 mm 4 mps 735 mmHg 79%
    01:00 -10°C° 0 mm 4 mps 735 mmHg 82%
    02:00 -10°C° 0 mm 4 mps 735 mmHg 82%
    03:00 -10°C° 0 mm 4 mps 735 mmHg 82%
    04:00 -10°C° 0 mm 4 mps 735 mmHg 83%
    05:00 -10°C° 0 mm 4 mps 736 mmHg 82%
    06:00 -10°C° 0 mm 4 mps 736 mmHg 81%
    07:00 -11°C° 0 mm 5 mps 736 mmHg 80%
    08:00 -11°C° 0 mm 5 mps 736 mmHg 79%
    09:00 -10°C° 0 mm 5 mps 736 mmHg 78%
    10:00 -10°C° 0 mm 5 mps 737 mmHg 77%
    11:00 -10°C° 0 mm 5 mps 736 mmHg 76%
    12:00 -8°C° 0 mm 5 mps 736 mmHg 75%
    13:00 -8°C° 0 mm 5 mps 736 mmHg 74%
    14:00 -8°C° 0 mm 5 mps 736 mmHg 75%
    15:00 -8°C° 0 mm 5 mps 737 mmHg 77%
    16:00 -10°C° 0 mm 5 mps 737 mmHg 78%
    17:00 -10°C° 0 mm 5 mps 737 mmHg 79%
    18:00 -10°C° 0 mm 5 mps 737 mmHg 80%
    19:00 -10°C° 0 mm 6 mps 737 mmHg 81%
    20:00 -10°C° 0 mm 6 mps 737 mmHg 81%
    21:00 -10°C° 0 mm 6 mps 737 mmHg 81%
    22:00 -10°C° 0 mm 6 mps 737 mmHg 81%
    23:00 -10°C° 0.3 mm 5 mps 737 mmHg 83%

    Tomorrow, 25 January, Friday

    Time Temperature Precipitation Wind Pressure Humidity
    00:00 -10°C° 0.3 mm 5 mps 737 mmHg 86%
    01:00 -10°C° 0.3 mm 5 mps 737 mmHg 88%
    02:00 -10°C° 0.3 mm 5 mps 737 mmHg 88%
    03:00 -9°C° 0.3 mm 4 mps 736 mmHg 87%
    04:00 -9°C° 0.3 mm 4 mps 736 mmHg 87%
    05:00 -10°C° 0.1 mm 4 mps 736 mmHg 87%
    06:00 -9°C° 0.1 mm 3 mps 736 mmHg 86%
    07:00 -9°C° 0.1 mm 3 mps 736 mmHg 86%
    08:00 -8°C° 0.1 mm 3 mps 737 mmHg 85%
    09:00 -7°C° 0.1 mm 2 mps 737 mmHg 85%
    10:00 -7°C° 0.1 mm 2 mps 737 mmHg 84%
    11:00 -6°C° 0.1 mm 1 mps 737 mmHg 83%
    12:00 -4°C° 0.1 mm 1 mps 737 mmHg 82%
    13:00 -5°C° 0.1 mm 0 mps 737 mmHg 82%
    14:00 -4°C° 0.1 mm 1 mps 737 mmHg 82%
    15:00 -4°C° 0.1 mm 1 mps 738 mmHg 83%
    16:00 -4°C° 0.1 mm 1 mps 738 mmHg 83%
    17:00 -6°C° 0 mm 2 mps 738 mmHg 84%
    18:00 -6°C° 0 mm 2 mps 738 mmHg 85%
    19:00 -6°C° 0 mm 2 mps 738 mmHg 87%
    20:00 -7°C° 0 mm 3 mps 739 mmHg 87%
    21:00 -8°C° 0 mm 3 mps 739 mmHg 88%
    22:00 -8°C° 0 mm 3 mps 739 mmHg 89%
    23:00 -8°C° 0 mm 3 mps 739 mmHg 88%

    Day after tomorrow, 26 January, Saturday

    Time Temperature Precipitation Wind Pressure Humidity
    00:00 -7°C° 0 mm 3 mps 739 mmHg 87%
    01:00 -8°C° 0 mm 4 mps 738 mmHg 86%
    02:00 -8°C° 0 mm 3 mps 738 mmHg 87%
    03:00 -8°C° 0 mm 3 mps 737 mmHg 88%
    04:00 -9°C° 0 mm 3 mps 737 mmHg 89%
    05:00 -9°C° 0 mm 3 mps 737 mmHg 88%
    06:00 -8°C° 0 mm 3 mps 736 mmHg 87%
    07:00 -9°C° 0 mm 4 mps 736 mmHg 86%
    08:00 -8°C° 0 mm 4 mps 735 mmHg 83%
    09:00 -8°C° 0 mm 4 mps 734 mmHg 81%
    10:00 -7°C° 0 mm 5 mps 733 mmHg 78%
    11:00 -6°C° 0.6 mm 5 mps 732 mmHg 83%
    12:00 -6°C° 0.6 mm 5 mps 731 mmHg 88%
    13:00 -5°C° 0.6 mm 5 mps 730 mmHg 94%
    14:00 -5°C° 0.5 mm 5 mps 730 mmHg 93%
    15:00 -4°C° 0.5 mm 5 mps 729 mmHg 93%
    16:00 -2°C° 0.5 mm 4 mps 729 mmHg 93%
    17:00 -2°C° 0 mm 4 mps 729 mmHg 94%
    18:00 -3°C° 0 mm 4 mps 729 mmHg 95%
    19:00 -2°C° 0 mm 3 mps 729 mmHg 96%
    20:00 -2°C° 0 mm 3 mps 730 mmHg 95%
    21:00 -2°C° 0 mm 3 mps 730 mmHg 95%
    22:00 -2°C° 0 mm 3 mps 730 mmHg 95%
    23:00 -2°C° 0.1 mm 3 mps 730 mmHg 95%

    27 January, Sunday

    Time Temperature Precipitation Wind Pressure Humidity
    00:00 -2°C° 0.1 mm 3 mps 730 mmHg 95%
    01:00 -2°C° 0.1 mm 3 mps 731 mmHg 95%
    02:00 -2°C° 0.1 mm 3 mps 730 mmHg 96%
    03:00 -2°C° 0.1 mm 2 mps 730 mmHg 96%
    04:00 -2°C° 0.1 mm 2 mps 730 mmHg 96%
    05:00 -1°C° 0.1 mm 2 mps 730 mmHg 97%
    06:00 -1°C° 0.1 mm 2 mps 730 mmHg 97%
    07:00 +1°C° 0.1 mm 1 mps 730 mmHg 97%
    08:00 -1°C° 0 mm 2 mps 730 mmHg 97%
    09:00 +1°C° 0 mm 2 mps 730 mmHg 98%
    10:00 +1°C° 0 mm 2 mps 730 mmHg 98%
    11:00 +1°C° 0.2 mm 2 mps 729 mmHg 99%
    12:00 0°C° 0.2 mm 3 mps 729 mmHg 99%
    13:00 0°C° 0.2 mm 3 mps 728 mmHg 99%
    14:00 0°C° 0.3 mm 3 mps 728 mmHg 98%
    15:00 0°C° 0.3 mm 3 mps 727 mmHg 97%
    16:00 0°C° 0.3 mm 3 mps 727 mmHg 97%
    17:00 0°C° 0.1 mm 3 mps 727 mmHg 96%
    18:00 0°C° 0.1 mm 3 mps 727 mmHg 95%
    19:00 0°C° 0.1 mm 3 mps 727 mmHg 94%
    20:00 0°C° 0.1 mm 3 mps 726 mmHg 94%
    21:00 +1°C° 0.1 mm 2 mps 726 mmHg 94%
    22:00 +1°C° 0.1 mm 2 mps 726 mmHg 93%
    23:00 -1°C° 0 mm 2 mps 726 mmHg 92%

    28 January, Monday

    Time Temperature Precipitation Wind Pressure Humidity
    00:00 -1°C° 0 mm 2 mps 726 mmHg 92%
    01:00 -1°C° 0 mm 2 mps 726 mmHg 91%
    02:00 -1°C° 0 mm 2 mps 725 mmHg 90%
    03:00 -1°C° 0 mm 2 mps 725 mmHg 90%
    04:00 -1°C° 0 mm 2 mps 724 mmHg 90%
    05:00 -2°C° 0 mm 2 mps 724 mmHg 89%
    06:00 -2°C° 0 mm 2 mps 724 mmHg 89%
    07:00 -2°C° 0 mm 2 mps 724 mmHg 89%
    08:00 -1°C° 0 mm 2 mps 724 mmHg 88%
    09:00 -1°C° 0 mm 3 mps 724 mmHg 88%
    10:00 0°C° 0 mm 3 mps 724 mmHg 88%
    11:00 0°C° 0 mm 3 mps 724 mmHg 90%
    12:00 0°C° 0 mm 3 mps 724 mmHg 92%
    13:00 +1°C° 0 mm 3 mps 723 mmHg 94%
    14:00 +1°C° 0.3 mm 3 mps 723 mmHg 93%
    15:00 +1°C° 0.3 mm 2 mps 723 mmHg 93%
    16:00 +1°C° 0.3 mm 2 mps 723 mmHg 92%
    17:00 +1°C° 0.4 mm 2 mps 723 mmHg 92%
    18:00 +1°C° 0.4 mm 2 mps 723 mmHg 92%
    19:00 0°C° 0.4 mm 3 mps 723 mmHg 92%
    20:00 0°C° 0 mm 3 mps 724 mmHg 92%
    21:00 -1°C° 0 mm 3 mps 724 mmHg 92%
    22:00 -2°C° 0 mm 4 mps 724 mmHg 91%
    23:00 -2°C° 0 mm 4 mps 724 mmHg 91%

    29 January, Tuesday

    Time Temperature Precipitation Wind Pressure Humidity
    00:00 -2°C° 0 mm 4 mps 725 mmHg 91%
    01:00 -2°C° 0 mm 4 mps 725 mmHg 91%
    02:00 -2°C° 0 mm 5 mps 725 mmHg 91%
    03:00 -1°C° 0 mm 5 mps 725 mmHg 91%
    04:00 -1°C° 0 mm 5 mps 726 mmHg 91%
    05:00 -1°C° 0.1 mm 5 mps 726 mmHg 89%
    06:00 -2°C° 0.1 mm 6 mps 727 mmHg 88%
    07:00 -2°C° 0.1 mm 6 mps 728 mmHg 86%
    08:00 -2°C° 0.1 mm 6 mps 729 mmHg 87%
    09:00 -3°C° 0.1 mm 6 mps 730 mmHg 88%
    10:00 -3°C° 0.1 mm 6 mps 731 mmHg 90%
    11:00 -3°C° 0.1 mm 6 mps 731 mmHg 87%
    12:00 -3°C° 0.1 mm 6 mps 732 mmHg 85%
    13:00 -3°C° 0.1 mm 6 mps 732 mmHg 82%
    14:00 -2°C° 0 mm 5 mps 733 mmHg 83%
    15:00 -3°C° 0 mm 4 mps 733 mmHg 83%
    16:00 -2°C° 0 mm 3 mps 734 mmHg 84%
    17:00 -4°C° 0 mm 3 mps 734 mmHg 84%
    18:00 -4°C° 0 mm 3 mps 734 mmHg 84%
    19:00 -4°C° 0 mm 4 mps 734 mmHg 84%
    20:00 -4°C° 0 mm 4 mps 735 mmHg 84%
    21:00 -4°C° 0 mm 4 mps 735 mmHg 85%
    22:00 -4°C° 0 mm 4 mps 735 mmHg 85%
    23:00 -4°C° 0 mm 4 mps 735 mmHg 85%
    Show more